STARLINK-2266, 47997

Orbit data source: Space-Track

STARLINK-2266, 47997 is a payload satellite owned by SpaceX/Seattle (US) in LEO that was launched on Wed, 24 Mar 2021 UTC via an FALCON 9 launch vehicle from the Air Force Eastern Test Range (AFETR). Payload-class satellites include a variety of spacecraft equipped with specific instruments for various scientific and technological missions. These include communications satellites like Starlink; space stations such as the ISS; scientific satellites like the Hubble; Earth observation satellites from companies like Planet Labs, Umbra, and HawkEye 360; GPS; miniature CubeSats for education and research; and military/defense satellites.

Loading next visibility...
Identifier
47997, 2021-024W
Orbit
LEO
Country
Flag of USUS
Related business
Manufacturer
SpaceX/Seattle
Mission
Operational Commercial Communications
Bus & Motor
STARLINK, Unknown motor
Mass
260 kg wet, ~248 kg dry
Launch date (UTC)
2021-03-24 (5 years ago)
Launch vehicle
FALCON 9
Launch site
Air Force Eastern Test Range (AFETR)
Object type
Payload
Rocket body
Debris
Shape & HBR
Box + 1 Pan, 10.1 m
Radar Cross Section
13.562 m², Large (>1 m²)

Expand to show TLE details & history
Last TLE update: 2 days ago

TLE from 2 days ago
0 STARLINK-2266
1 47997U 21024W   26171.42158017  .00000532  00000-0  28917-4 0  9991
2 47997  53.1598 188.8382 0001203  85.2732 274.8407 15.31698458290722
Epoch: 2026-06-20T10:07Z
TLE epoch observation values (Epoch: 2026-06-20T10:07:04.526Z)
Latitude
-0.00001°
Longitude
128.43289°
Altitude
471.575 km
Speed
7.632 km/s
True Right ascension
12h 35m 21s
True Declination
0° 00' 00"
Sunlit
Object was in daylight at epoch
Visualization orbit readout
Latitude
Unknown
Longitude
Unknown
Altitude
Unknown
Speed
Unknown
Apparent Right ascension
Unknown
Apparent Declination
Unknown
Sunlit
N/A
Visualization observer readout
Local Sidereal Time
21:38:01
Azimuth
Unknown
Elevation
Unknown
Doppler factor
Unknown
Orbital elements
Apogee altitude
471.825 km
Perigee altitude
470.177 km
Semi-major axis
6,849.138 km
Eccentricity
0.00012
Inclination
53.1598°
RAAN
188.8382°
Arg. of periapsis
85.2732°
True anomaly
274.82696°
Mean anomaly
274.8407°
Eccentric anomaly
274.83383°
Mean motion
3.82903 °/min
Orbital period
94.02 mins
BSTAR
0.000028917
Loading maneuver chart data...
Computing Atmospheric mass density...

Documentation

Showing up to 5 results
|